Lexington Weather

Lexington, Massachusetts, USA

42°F
4/22/2024 8:22am 
  • Lexington Conditions: Clear
  • Temperature: 41.7°F / 5.4°CWarmer 3.6°F than last hour.
  • Dew Point: 28.4°FDecreased 1.1°Fsince last hour.
  • Relative Humidity: 59%Decreased 12.0% since last hour.
  • Wind: Calm, 10-min avg: Calm, gust: None
  • Barometer: 29.95 in Steady
  • Visibility: 10 miles
  • Rain Today: 0.00 in
  •   

Regional Weather Roundup
for Boston, MA

        
000
ASUS41 KBOX 190610
RWRBOX

REGIONAL WEATHER ROUNDUP
NATIONAL WEATHER SERVICE BOSTON/NORTON MA
200 AM EDT FRI APR 19 2024

NOTE:  "FAIR" INDICATES FEW OR NO CLOUDS BELOW 12,000 FEET WITH NO 
SIGNIFICANT WEATHER AND/OR OBSTRUCTIONS TO VISIBILITY.

MAZALL-190700-
EASTERN MASSACHUSETTS
  
CITY           SKY/WX    TMP DP  RH WIND       PRES   REMARKS
BOSTON         CLOUDY    44  41  89 NE7       30.20F                  
6HR MIN TEMP:  44; 6HR MAX TEMP:  45; 6HR PCP: TRACE;                

BEVERLY        CLOUDY    43  40  89 N3        30.19S                  
LAWRENCE       CLOUDY    44  41  89 CALM      30.21S                  
BEDFORD        CLOUDY    43  41  93 NE3       30.18S                  
NORWOOD        CLOUDY    46  41  82 NE3       30.19F                  
MARSHFIELD     CLOUDY    45  39  81 CALM      30.19S                  
PLYMOUTH       CLOUDY    45  41  86 E3        30.17F                  
TAUNTON        CLOUDY    45  41  86 CALM      30.18F                  
NEW BEDFORD    CLOUDY    44  42  93 NE3       30.17F                  
$$

MAZALL-190700-
CAPE COD AND THE ISLANDS
  
CITY           SKY/WX    TMP DP  RH WIND       PRES   REMARKS
FALMOUTH       CLOUDY    45  39  81 CALM      30.18R                  
HYANNIS        CLOUDY    44  37  76 NE6       30.16S                  
CHATHAM        CLOUDY    44  40  85 NE6       30.18F                  
PROVINCETOWN   LGT RAIN  44  41  89 E8        30.19F                  
NANTUCKET      CLOUDY    44  40  85 NE10      30.15F                  
MARTHAS VNYRD  CLOUDY    45  40  82 NE9       30.16S                  
$$
 
MAZALL-190700-
CENTRAL AND WESTERN MASSACHUSETTS
  
CITY           SKY/WX    TMP DP  RH WIND       PRES   REMARKS
WORCESTER      CLOUDY    41  38  89 N5        30.16F                  
6HR MIN TEMP:  41; 6HR MAX TEMP:  42;                                

FITCHBURG      CLOUDY    44  39  82 NW3       30.20S                  
ORANGE         CLOUDY    43  40  89 CALM      30.19S                  
SPRINGFIELD    CLOUDY    43  39  86 CALM      30.16S                  
WESTFIELD      CLOUDY    44  39  82 CALM      30.17F                  
NORTH ADAMS    CLOUDY    45  36  70 E9        30.15F                  
PITTSFIELD     CLOUDY    41  34  76 CALM      30.13F                  
$$
 
RIZALL-190700-
RHODE ISLAND
  
CITY           SKY/WX    TMP DP  RH WIND       PRES   REMARKS
PROVIDENCE     CLOUDY    44  41  89 NE6       30.18F                  
6HR MIN TEMP:  42; 6HR MAX TEMP:  44; 6HR PCP: TRACE;                

NEWPORT        CLOUDY    43  40  89 NE9       30.16F                  
BLOCK ISLAND   CLOUDY    43  40  89 NE10      30.17F                  
SMITHFIELD     CLOUDY    42  42 100 E6        30.17F                  
WESTERLY       CLOUDY    43  40  89 NE6       30.17S                  
$$
 
CTZALL-190700-
CONNECTICUT
  
CITY           SKY/WX    TMP DP  RH WIND       PRES   REMARKS
BRADLEY INTL   CLOUDY    46  39  76 N5        30.18F                  
6HR MIN TEMP:  46; 6HR MAX TEMP:  48;                                

HARTFORD       CLOUDY    45  39  79 N6        30.17F                  
PLAINVILLE     CLOUDY    44  41  90 N3        30.17F                  
BRIDGEPORT     CLOUDY    46  40  79 NE7       30.17F                  
DANBURY        CLOUDY    45  38  76 NE3       30.17S                  
GROTON         CLOUDY    45  41  86 N7        30.16F                  
NEW HAVEN      CLOUDY    47  41  80 NE6       30.17F                  
CHESTER        CLOUDY    43  41  93 N3        30.16F                  
MERIDEN        CLOUDY    45  37  73 CALM      30.17F                  
WILLIMANTIC    CLOUDY    43  39  86 CALM      30.17F                  
OXFORD         MOCLDY    43  37  81 E8        30.15F                  
$$

MEZ002-015-021-024-NHZ003-005-008-011-012-014-VTZ005-008-190700-
NORTHERN NEW ENGLAND
  
CITY           SKY/WX    TMP DP  RH WIND       PRES   REMARKS
PORTLAND ME    CLOUDY    44  39  82 SW3       30.20S                  
6HR MIN TEMP:  44; 6HR MAX TEMP:  45; 6HR PCP: TRACE;                

BANGOR ME      PTCLDY    34  30  85 CALM      30.18F                  
CONCORD NH     CLOUDY    42  40  92 CALM      30.20S                  
MANCHESTER NH  CLOUDY    45  40  82 N3        30.19S                  
NASHUA NH      CLOUDY    44  50 100 NW3       30.20F                  
PORTSMOUTH NH  LGT RAIN  44  41  88 CALM      30.19S                  
JAFFREY NH     CLOUDY    42  38  85 CALM      30.17F                  
KEENE NH       CLOUDY    42  41  96 CALM      30.18F                  
BURLINGTON VT  CLOUDY    45  38  76 S10       30.12F                  
MT. WASHINGTON CLOUDY    27   9  46 SE10        N/A  VSB 1   WCI  17  
$$

NYZ052-076-190700-
EASTERN NEW YORK
  
CITY           SKY/WX    TMP DP  RH WIND       PRES   REMARKS
ALBANY         CLOUDY    46  36  68 SE5       30.15F                  
6HR MIN TEMP:  45; 6HR MAX TEMP:  47; 6HR PCP: TRACE;                

NEW YORK CITY  CLOUDY    46  38  73 NE9       30.16R                  
6HR MIN TEMP:  46; 6HR MAX TEMP:  48;                                

$$
 
ANZALL-190700-
MARINE OBSERVATIONS
  
STATION/POSITION TIME  TEMP    WIND        PRES    VSBY  WAVE
                       AIR SEA DIR/SP/G                  HT/PER
                 (UTC) (F)     (DEG/KT/KT) (MB)    (MI)  (FT/S)
BOSTON BUOY      0550   44      80/  4/  6 1022.1F         2/11
BUZZARDS BAY     0500   44      40/ 12/ 12 1022.1F
NANTUCKET SOUND  0540   45 47   70/ 12/ 14 1021.1F
MASS BAY-STELLWA 0404   45 45   50/  6/  8 1023.2   1 7/8  2/ 4
ISLE OF SHOALS   0500   44      90/  6/  7 1021.8F
S OF BLOCK IS    0556      44                N/A           5/ 8
$$

......................KEY.........................
  SKY/WX - SKY CONDITION/PRESENT WEATHER
  TMP    - TEMPERATURE IN FAHRENHEIT
  DWPT   - DEWPOINT IN FAHRENHEIT
  RH     - RELATIVE HUMIDITY IN PERCENT
  WIND   - DIRECTION AND SPEED IN MPH
  PRES   - MEAN SEA LEVEL PRESSURE IN INCHES OF HG
  WCI    - WIND CHILL INDEX
  VSB    - VISIBILITY IN MILES
  HX     - HEAT INDEX
  TC     - TEMPERATURE IN CELSIUS
  VRB    - VARIABLE WIND DIRECTION
  N/A    - NOT AVAILABLE
  
      

Other recent Regional Weather Roundups

Mon Apr 22, 8:10am EDT

Mon Apr 22, 7:10am EDT

Mon Apr 22, 6:10am EDT

Mon Apr 22, 5:10am EDT

Mon Apr 22, 4:10am EDT

Mon Apr 22, 3:10am EDT

Mon Apr 22, 2:10am EDT

Mon Apr 22, 1:10am EDT

Mon Apr 22, 12:10am EDT

Sun Apr 21, 11:10pm EDT

Sun Apr 21, 10:10pm EDT

Sun Apr 21, 9:10pm EDT

Sun Apr 21, 8:10pm EDT

Sun Apr 21, 7:10pm EDT

Sun Apr 21, 6:10pm EDT

Sun Apr 21, 5:10pm EDT

Sun Apr 21, 4:10pm EDT

Sun Apr 21, 3:10pm EDT

Sun Apr 21, 2:10pm EDT

Sun Apr 21, 1:10pm EDT

Sun Apr 21, 12:10pm EDT

Sun Apr 21, 11:10am EDT

Sun Apr 21, 10:10am EDT

Sun Apr 21, 9:10am EDT

Sun Apr 21, 8:10am EDT

Sun Apr 21, 7:10am EDT

Sun Apr 21, 6:10am EDT

Sun Apr 21, 5:10am EDT

Sun Apr 21, 4:10am EDT

Sun Apr 21, 3:10am EDT

Sun Apr 21, 2:10am EDT

Sun Apr 21, 1:10am EDT

Sun Apr 21, 12:10am EDT

Sat Apr 20, 11:10pm EDT

Sat Apr 20, 10:10pm EDT

Sat Apr 20, 9:10pm EDT

Sat Apr 20, 8:10pm EDT

Sat Apr 20, 7:10pm EDT

Sat Apr 20, 6:10pm EDT

Sat Apr 20, 5:10pm EDT

Sat Apr 20, 4:10pm EDT

Sat Apr 20, 3:10pm EDT

Sat Apr 20, 2:10pm EDT

Sat Apr 20, 1:10pm EDT

Sat Apr 20, 12:10pm EDT

Sat Apr 20, 11:10am EDT

Sat Apr 20, 10:10am EDT

Sat Apr 20, 9:10am EDT

Sat Apr 20, 8:10am EDT

Sat Apr 20, 7:10am EDT

Sat Apr 20, 6:10am EDT

Sat Apr 20, 5:10am EDT

Sat Apr 20, 4:10am EDT

Sat Apr 20, 3:10am EDT

Sat Apr 20, 2:10am EDT

Sat Apr 20, 1:10am EDT

Sat Apr 20, 12:10am EDT

Fri Apr 19, 11:10pm EDT

Fri Apr 19, 10:10pm EDT

Fri Apr 19, 9:10pm EDT

Fri Apr 19, 8:10pm EDT

Fri Apr 19, 7:10pm EDT

Fri Apr 19, 6:10pm EDT

Fri Apr 19, 5:10pm EDT

Fri Apr 19, 4:10pm EDT

Fri Apr 19, 3:10pm EDT

Fri Apr 19, 2:10pm EDT

Fri Apr 19, 1:10pm EDT

Fri Apr 19, 12:10pm EDT

Fri Apr 19, 11:10am EDT

Fri Apr 19, 10:10am EDT

Fri Apr 19, 9:10am EDT

Fri Apr 19, 8:10am EDT

Fri Apr 19, 7:10am EDT

Fri Apr 19, 6:10am EDT

Fri Apr 19, 5:10am EDT

Fri Apr 19, 4:10am EDT

Fri Apr 19, 3:10am EDT

Fri Apr 19, 1:10am EDT

Fri Apr 19, 12:10am EDT

Thu Apr 18, 11:10pm EDT

Thu Apr 18, 10:10pm EDT

Thu Apr 18, 9:10pm EDT

Thu Apr 18, 8:10pm EDT

Thu Apr 18, 7:10pm EDT

Thu Apr 18, 6:10pm EDT

Thu Apr 18, 5:10pm EDT

Thu Apr 18, 4:10pm EDT

Thu Apr 18, 3:10pm EDT

Thu Apr 18, 2:10pm EDT

Thu Apr 18, 1:10pm EDT

Thu Apr 18, 12:10pm EDT

Thu Apr 18, 11:10am EDT

Thu Apr 18, 10:10am EDT

Thu Apr 18, 9:10am EDT

Thu Apr 18, 8:10am EDT

Thu Apr 18, 7:10am EDT

Thu Apr 18, 6:10am EDT

Thu Apr 18, 5:10am EDT

Thu Apr 18, 4:10am EDT

Thu Apr 18, 3:10am EDT

Thu Apr 18, 2:10am EDT

Thu Apr 18, 1:10am EDT

Thu Apr 18, 12:10am EDT

Wed Apr 17, 11:10pm EDT

Wed Apr 17, 10:10pm EDT

Wed Apr 17, 9:10pm EDT

Wed Apr 17, 8:10pm EDT

Wed Apr 17, 7:10pm EDT

Wed Apr 17, 6:10pm EDT

Wed Apr 17, 5:10pm EDT

Wed Apr 17, 4:10pm EDT

Wed Apr 17, 3:10pm EDT

Wed Apr 17, 2:10pm EDT

Wed Apr 17, 1:10pm EDT

Wed Apr 17, 12:10pm EDT

Wed Apr 17, 11:10am EDT

Wed Apr 17, 10:10am EDT

Wed Apr 17, 9:10am EDT

Wed Apr 17, 8:10am EDT

Wed Apr 17, 7:10am EDT

Wed Apr 17, 6:10am EDT

Wed Apr 17, 5:10am EDT

Wed Apr 17, 4:10am EDT

Wed Apr 17, 3:10am EDT

Wed Apr 17, 2:10am EDT

Wed Apr 17, 1:10am EDT

Wed Apr 17, 12:10am EDT

Tue Apr 16, 11:10pm EDT

Tue Apr 16, 10:10pm EDT

Tue Apr 16, 9:10pm EDT

Tue Apr 16, 8:10pm EDT

Tue Apr 16, 7:10pm EDT

Tue Apr 16, 6:10pm EDT

Tue Apr 16, 5:10pm EDT

Tue Apr 16, 4:10pm EDT

Tue Apr 16, 3:10pm EDT

Tue Apr 16, 2:10pm EDT

Tue Apr 16, 1:10pm EDT

Tue Apr 16, 12:10pm EDT

Tue Apr 16, 11:10am EDT

Tue Apr 16, 10:10am EDT

Tue Apr 16, 9:10am EDT

Tue Apr 16, 8:10am EDT

Tue Apr 16, 7:10am EDT

Tue Apr 16, 6:10am EDT

Tue Apr 16, 5:10am EDT

Tue Apr 16, 4:10am EDT

Tue Apr 16, 3:10am EDT

Tue Apr 16, 2:10am EDT

Tue Apr 16, 1:10am EDT

Tue Apr 16, 12:10am EDT

Mon Apr 15, 11:10pm EDT

Mon Apr 15, 10:10pm EDT

Mon Apr 15, 9:10pm EDT

Mon Apr 15, 8:10pm EDT

Mon Apr 15, 7:10pm EDT

Mon Apr 15, 6:10pm EDT

Mon Apr 15, 5:10pm EDT

Mon Apr 15, 4:10pm EDT

Mon Apr 15, 3:10pm EDT

Mon Apr 15, 2:10pm EDT

Mon Apr 15, 1:10pm EDT

Mon Apr 15, 12:10pm EDT

Mon Apr 15, 11:10am EDT

Mon Apr 15, 10:10am EDT

Mon Apr 15, 9:10am EDT